TimeEDT,TemperatureF,Dew PointF,Humidity,Sea Level PressureIn,VisibilityMPH,Wind Direction,Wind SpeedMPH,Gust SpeedMPH,PrecipitationIn,Events,Conditions,WindDirDegrees,DateUTC
12:52 AM,68.0,61.0,78,30.18,10.0,Calm,Calm,-,N/A,,Partly Cloudy,0,2013-08-27 04:52:00
1:52 AM,68.0,61.0,78,30.17,10.0,Calm,Calm,-,N/A,,Partly Cloudy,0,2013-08-27 05:52:00
2:52 AM,68.0,61.0,78,30.15,10.0,WNW,3.5,-,N/A,,Partly Cloudy,290,2013-08-27 06:52:00
3:52 AM,66.0,60.1,81,30.14,10.0,WNW,5.8,-,N/A,,Partly Cloudy,300,2013-08-27 07:52:00
4:52 AM,66.0,61.0,84,30.12,10.0,Calm,Calm,-,N/A,,Partly Cloudy,0,2013-08-27 08:52:00
5:52 AM,64.9,61.0,87,30.13,10.0,Calm,Calm,-,N/A,,Partly Cloudy,0,2013-08-27 09:52:00
6:52 AM,64.9,60.1,84,30.14,10.0,NW,4.6,-,N/A,,Partly Cloudy,320,2013-08-27 10:52:00
7:52 AM,66.9,61.0,81,30.14,10.0,WNW,3.5,-,N/A,,Scattered Clouds,300,2013-08-27 11:52:00
8:52 AM,71.1,62.1,73,30.14,10.0,NW,4.6,-,N/A,,Scattered Clouds,320,2013-08-27 12:52:00
9:52 AM,73.0,64.0,73,30.14,10.0,NW,5.8,-,N/A,,Mostly Cloudy,320,2013-08-27 13:52:00
10:52 AM,79.0,63.0,58,30.13,10.0,NW,10.4,-,N/A,,Scattered Clouds,320,2013-08-27 14:52:00
11:52 AM,81.0,63.0,54,30.13,10.0,NNW,8.1,-,N/A,,Mostly Cloudy,330,2013-08-27 15:52:00
12:52 PM,81.0,63.0,54,30.12,10.0,Calm,Calm,-,N/A,,Mostly Cloudy,0,2013-08-27 16:52:00
1:52 PM,84.0,64.0,51,30.10,10.0,Variable,3.5,-,N/A,,Mostly Cloudy,0,2013-08-27 17:52:00
2:52 PM,82.9,64.0,53,30.08,10.0,NNW,8.1,-,N/A,,Mostly Cloudy,330,2013-08-27 18:52:00
3:52 PM,84.0,64.0,51,30.06,10.0,North,8.1,-,N/A,,Mostly Cloudy,350,2013-08-27 19:52:00
4:52 PM,82.9,64.0,53,30.05,10.0,NW,5.8,-,N/A,,Scattered Clouds,320,2013-08-27 20:52:00
5:52 PM,84.9,64.9,51,30.04,10.0,NNW,8.1,-,N/A,,Mostly Cloudy,340,2013-08-27 21:52:00
6:52 PM,84.0,64.9,53,30.04,10.0,NW,8.1,-,N/A,,Mostly Cloudy,310,2013-08-27 22:52:00
7:52 PM,81.0,64.9,58,30.04,10.0,WNW,5.8,-,N/A,,Mostly Cloudy,290,2013-08-27 23:52:00
8:52 PM,80.1,66.0,62,30.04,10.0,West,3.5,-,N/A,,Mostly Cloudy,260,2013-08-28 00:52:00
9:52 PM,77.0,66.9,71,30.06,10.0,WNW,4.6,-,N/A,,Mostly Cloudy,290,2013-08-28 01:52:00
10:52 PM,75.0,68.0,79,30.06,10.0,Calm,Calm,-,N/A,,Mostly Cloudy,0,2013-08-28 02:52:00
11:52 PM,75.0,68.0,79,30.06,10.0,Calm,Calm,-,N/A,,Scattered Clouds,0,2013-08-28 03:52:00